Location: B�rgermoos
(47.6500°N, 9.0667°E)
Time: 09:14:11
(UTC+00:00)

Cosmos 1833 Rocket - Pass Details

Date: 18 September 2020
Orbit: 831 x 841 km, 71.0° (Epoch: 27 October)

Event Time Altitude Azimuth Distance (km) Brightness Sun altitude
Rises 21:43:39 0° 327° (NNW) 3,407 6.8 -36.8°
Reaches altitude 10° 21:46:14 10° 319° (NW) 2,468 5.8 -37.0°
Enters shadow 21:49:08 27° 299° (WNW) 1,571 4.4 -37.3°
